This is the latest recevied weather packets stored in our database for station/object WY7EM. If no packets are shown the sender has not sent any weather packets the latest 10 day(s).
| Time | Temp. | Humidity | Pressure | Rain* | Wind** | Luminosity | Snow |
|---|---|---|---|---|---|---|---|
| 1778171003 | 17.22° C | 24% | 1020.6 hPa | 0 mm | - | 566 W/m² | - |
| 1778170700 | 17.22° C | 24% | 1020.6 hPa | 0 mm | - | 550 W/m² | - |
| 1778170397 | 17.22° C | 24% | 1020.5 hPa | 0 mm | - | 535 W/m² | - |
| 1778170093 | 17.22° C | 24% | 1020.5 hPa | 0 mm | - | 520 W/m² | - |
| 1778169789 | 17.22° C | 24% | 1020.7 hPa | 0 mm | - | 505 W/m² | - |
| 1778169485 | 17.22° C | 24% | 1021 hPa | 0 mm | - | 489 W/m² | - |
| 1778169181 | 16.67° C | 25% | 1021 hPa | 0 mm | - | 472 W/m² | - |
| 1778168878 | 16.67° C | 26% | 1020.8 hPa | 0 mm | - | 457 W/m² | - |
| 1778168576 | 16.67° C | 26% | 1020.8 hPa | 0 mm | - | 441 W/m² | - |
| 1778168272 | 16.67° C | 25% | 1021 hPa | 0 mm | - | 422 W/m² | - |
| 1778167969 | 16.67° C | 26% | 1020.8 hPa | 0 mm | - | 406 W/m² | - |
| 1778167666 | 16.11° C | 26% | 1021 hPa | 0 mm | - | 388 W/m² | - |
| 1778167362 | 16.11° C | 27% | 1021.1 hPa | 0 mm | - | 369 W/m² | - |
| 1778167057 | 15.56° C | 27% | 1021.2 hPa | 0 mm | - | 350 W/m² | - |
| 1778166754 | 15.56° C | 28% | 1021.2 hPa | 0 mm | - | 331 W/m² | - |
| 1778166451 | 15.56° C | 28% | 1021 hPa | 0 mm | - | 312 W/m² | - |
| 1778166148 | 15.56° C | 28% | 1021.1 hPa | 0 mm | - | 292 W/m² | - |
| 1778165844 | 15.56° C | 28% | 1021.2 hPa | 0 mm | - | 274 W/m² | - |
| 1778165541 | 15° C | 29% | 1020.8 hPa | 0 mm | - | 255 W/m² | - |
| 1778165238 | 15.56° C | 26% | 1021.1 hPa | 0 mm | - | 238 W/m² | - |
| 1778164936 | 15° C | 26% | 1021.2 hPa | 0 mm | - | 220 W/m² | - |
| 1778164632 | 14.44° C | 27% | 1021.1 hPa | 0 mm | - | 204 W/m² | - |
| 1778164329 | 14.44° C | 28% | 1021.3 hPa | 0 mm | - | 89 W/m² | - |
| 1778164025 | 13.89° C | 28% | 1021.1 hPa | 0 mm | - | 55 W/m² | - |
| 1778163721 | 13.89° C | 28% | 1021.2 hPa | 0 mm | - | 42 W/m² | - |
* Rain latest hour (hover to see other rain measurements)
** Current wind speed in m/s (hover to see current wind gust speed)